Вернуться в каталог

STARLINK-5748

АктивенСвязьVLEO
NORAD 55604·PAYLOAD·🇺🇸 United States

Запущен Feb 12, 2023 с Cape Canaveral Space Force Station

Loading…

Ближайшие Пролёты (ближайшие 24 часа)

TLE

СвежийSource: CelesTrak SupGP

Эпоха: Sep 15, 2026, 01:56 UTC

1 55604C 23020AM  26258.08104167  .00008687  00000+0  31467-3 0  2587
2 55604  43.0024 349.8233 0002273 270.0275 158.4724 15.27570020    15

Отслеживайте STARLINK-5748 в реальном времени с AllMySat

Download on the App Store